Treasure Island

Robert Herrick

(1591-1674 / London / England)

Stats

» Click to list general statistics » OR, select a date :

General Statistics

Visitors of the poet

Number of visitors of the poet’s mainpage in PoemHunter.Com

Attention : Numbers in this table does not indicate the total hits of poems of the poet, but indicates the hits of the poet’s main page.

Date Hits
08/22/2014 Friday 722
94%
08/21/2014 Thursday 394
51%
08/20/2014 Wednesday 405
52%
08/19/2014 Tuesday 338
44%
08/18/2014 Monday 368
48%
08/17/2014 Sunday 319
41%
08/16/2014 Saturday 335
43%
08/15/2014 Friday 365
47%
08/14/2014 Thursday 497
64%
08/13/2014 Wednesday 547
71%
08/12/2014 Tuesday 765
100%
08/11/2014 Monday 454
59%
08/10/2014 Sunday 341
44%
08/09/2014 Saturday 344
44%
08/08/2014 Friday 654
85%
08/07/2014 Thursday 410
53%
08/06/2014 Wednesday 302
39%
08/05/2014 Tuesday 330
43%
08/04/2014 Monday 305
39%
08/03/2014 Sunday 449
58%

Reader rating & num.of MyPoemList’s

Click the captions of columns to change the order.

# Poem Title Submit Date Reader Rating Num.of MyPoemList’s
Rating Num.R.
1 Upon Parson Beanes 01/01/2004 5.6 36 1
2 The Night Piece, to Julia 01/01/2004 5.6 21 1
3 To Perilla 01/13/2003 5.6 31 0
4 A Conjuration To Electra 01/13/2003 5.3 65 3
5 Divination By A Daffodil 01/13/2003 5.7 33 1
6 Upon The Nipples Of Julia's Breast 01/13/2003 5.2 38 10
7 Upon Julia's Unlacing Herself 01/13/2003 -- 0 4
8 Another 01/04/2003 5.7 31 2
9 To Oenone 01/04/2003 5.7 37 1
10 To the Western Wind 01/04/2003 5.5 10 0
11 Epitaph upon a Child that died 01/04/2003 5.9 32 2
12 Litany to the Holy Spirit 01/04/2003 5.8 26 1
13 A Child's Grace 01/04/2003 5.8 76 11
14 To Anthea, who may command him Anything 01/04/2003 5.9 31 3
15 The Wounded Cupid 01/03/2003 5.7 29 2
16 Upon Prew His Maid 01/03/2003 5.3 35 3
17 To Music: a Song 01/03/2003 5.5 30 0
18 A Ring Presented to Julia 01/03/2003 5.1 70 4
19 A Christmas Carol, Sung to the King in the Presence at White-Hall 01/03/2003 5.6 84 5
20 On Julia's Voice 01/03/2003 5.7 32 2
21 The Night Piece, to Julia 01/03/2003 5.5 20 2
22 Proof to No Purpose 01/03/2003 5.4 34 0
23 His Litany to the Holy Spirit 01/03/2003 5.6 30 2
24 The Hock-cart, or Harvest Home 01/03/2003 5.6 31 3
25 Oberon's Feast 01/03/2003 5.6 31 1
26 His Meditation Upon Death 01/03/2003 5.6 30 0
27 Be My Mistress Short or Tall 01/03/2003 5.9 35 2
28 A Thanksgiving to God for His House 01/03/2003 5.4 62 4
29 The Bracelet: To Julia 01/03/2003 5.7 32 3
30 Sweet Disorder 01/03/2003 5.7 39 4
31 To Virgins, to Make Much of Time 01/03/2003 8.3 10 38
32 To his mistress, objecting to him neither toying or talking 01/03/2003 6.0 35 2
33 Departure of the Good Daemon 01/03/2003 5.8 34 2
34 A Lyric to Mirth 01/03/2003 5.7 77 3
35 The Hour-glass 01/03/2003 5.4 34 1
36 Draw-gloves 01/03/2003 5.4 30 1
37 Rewards 01/03/2003 5.7 32 1
38 Miseries 01/03/2003 5.7 31 2
39 To his Girls 01/03/2003 5.6 32 1
40 An Ode to Master Endymion Porter, Upon His Brother's Death 01/03/2003 5.6 29 1
41 To His Honoured and Most Ingenious Friend Mr. Charles Cotton 01/03/2003 5.6 32 4
42 The Bellman 01/03/2003 5.8 31 0
43 The Good-night or Blessing 01/03/2003 5.5 42 1
44 The Rosary 01/03/2003 5.3 36 0
45 Truth and Falsehood 01/03/2003 -- 0 0
46 Up Scoble 12/31/2002 -- 0 1
47 The Vine 12/31/2002 5.7 33 2
48 To Live Merrily, And To Trust To Good Verses 12/31/2002 5.6 42 2
49 His Prayer For Absolution 12/31/2002 5.9 26 1
50 To Daffodils 12/31/2002 6.4 40 19
51 Corinna's Going A-Maying 12/31/2002 6.1 35 4
52 His Wish To God 12/31/2002 6.0 28 1
53 What Kind Of Mistress He Would Have 12/31/2002 5.5 31 3
54 Another Grace For A Child 12/31/2002 5.8 25 2
55 The Night Piece, To Julia 12/31/2002 5.7 32 2
56 Cherry- Ripe 12/31/2002 5.5 34 2
57 His Prayer To Ben Jonson 12/31/2002 5.7 28 4
58 The Argument Of His Book 12/31/2002 5.8 31 7
59 Discontents In Devon 12/31/2002 5.6 31 1
60 UPON A CHILD THAT DIED 12/31/2002 -- 0 2
61 LOVERS HOW THEY COME AND PART 12/31/2002 5.7 27 4
62 UPON TIME 12/31/2002 5.5 30 1
63 THE CEREMONIES FOR CANDLEMAS DAY 12/31/2002 5.7 29 0
64 WHY FLOWERS CHANGE COLOUR 12/31/2002 5.5 32 3
65 MATINS, OR MORNING PRAYER 12/31/2002 5.6 28 0
66 THE APRON OF FLOWERS 12/31/2002 5.7 30 1
67 THE CRUEL MAID 12/31/2002 5.7 29 1
68 UPON WRINKLES 12/31/2002 5.4 34 1
69 TO LIVE FREELY 12/31/2002 5.6 31 0
70 MAN'S DYING-PLACE UNCERTAIN 12/31/2002 5.3 32 0
71 TO HIS PECULIAR FRIEND, MR JOHN WICKS 12/31/2002 5.5 31 0
72 UPON JULIA'S VOICE 12/31/2002 5.3 25 2
73 A THANKSGIVING TO GOD, FOR HIS HOUSE 12/31/2002 5.8 82 3
74 THE PLAUDITE, OR END OF LIFE 12/31/2002 5.5 32 0
75 TO DAFFADILS 12/31/2002 5.7 29 1
76 ALL THINGS DECAY AND DIE 12/31/2002 5.4 69 2
77 UPON HER FEET 12/31/2002 9.0 1 2
78 TO HIS KINSWOMAN, MISTRESS SUSANNA HERRICK 12/31/2002 5.5 31 1
79 THE PRIMROSE 12/31/2002 5.5 39 0
80 TO DAISIES, NOT TO SHUT SO SOON 12/31/2002 5.7 29 1
81 THE BAD SEASON MAKES THE POET SAD 12/31/2002 5.8 49 2
82 A HYMN TO BACCHUS 12/31/2002 5.7 70 2
83 THE PRESENT TIME BEST PLEASETH 12/31/2002 5.5 32 0
84 SATISFACTION FOR SUFFERINGS 12/31/2002 5.5 30 1
85 THE DEFINITION OF BEAUTY 12/31/2002 6.0 32 2
86 IMPOSSIBILITIES: TO HIS FRIEND 12/31/2002 5.9 26 3
87 THE WHITE ISLAND:OR PLACE OF THE BLEST 12/31/2002 5.7 30 2
88 TO HIS BOOK 12/31/2002 5.6 42 2
89 POVERTY AND RICHES 12/31/2002 5.9 33 4
90 TO THE MAIDS, TO WALK ABROAD 12/31/2002 5.6 35 2
91 TO MUSIC: A SONG 12/31/2002 5.5 31 0
92 THE KISS: A DIALOGUE 12/31/2002 5.6 44 7
93 TO DIANEME 12/31/2002 -- 0 2
94 KISSING USURY 12/31/2002 5.8 25 1
95 UPON A DELAYING LADY 12/31/2002 -- 0 1
96 TO THE VIRGINS, TO MAKE MUCH OF TIME 12/31/2002 7.6 51 94
97 THE APPARITION OF HIS, MISTRESS,CALLING HIM TO ELYSIUM 12/31/2002 6.2 46 2
98 TO YOUTH 12/31/2002 -- 0 0
99 TO MISTRESS KATHARINE BRADSHAW, THE LOVELY, THAT CROWNED HIM WITH LAUREL 12/31/2002 5.6 30 0
100 ANACREONTIC 12/31/2002 5.6 30 1
101 TO ANTHEA, WHO MAY COMMAND HIM ANY THING 12/31/2002 5.9 32 9
102 A CONJURATION: TO ELECTRA 12/31/2002 5.9 71 5
103 COCK-CROW 12/31/2002 5.6 31 2
104 THE BEGGAR TO MAB, THE FAIRY QUEEN 12/31/2002 5.5 31 2
105 HIS GRANGE, OR PRIVATE WEALTH 12/31/2002 5.6 31 1
106 TO OENONE. 12/31/2002 5.5 30 0
107 HOW HIS SOUL CAME ENSNARED 12/31/2002 6.0 26 0
108 TO MUSIC 12/31/2002 5.6 30 0
109 HIS POETRY HIS PILLAR 12/31/2002 5.7 31 1
110 THE CHEAT OF CUPID; OR, THE UNGENTLE GUEST 12/31/2002 5.6 36 0
111 THE CHANGES: TO CORINNA 12/31/2002 5.6 31 1
112 TO PERENNA 12/31/2002 5.5 30 0
113 TO THE WILLOW-TREE 12/31/2002 -- 0 2
114 ANTHEA'S RETRACTATION 12/31/2002 5.6 29 2
115 THE FAIRY TEMPLE; OR, OBERON'S CHAPEL 12/31/2002 5.4 31 0
116 LOVE DISLIKES NOTHING 12/31/2002 6.2 30 2
117 TO THE HANDSOME MISTRESS GRACE POTTER 12/31/2002 5.5 30 1
118 TO PRIMROSES FILLED WITH MORNING DEW 12/31/2002 5.6 30 0
119 UPON JULIA'S HAIR FILLED WITH DEW 12/31/2002 -- 0 3
120 TO BLOSSOMS 12/31/2002 6.0 36 1
121 THE HEART 12/31/2002 5.5 43 1
122 THE COUNTRY LIFE: 12/31/2002 6.0 39 2
123 UPON HER EYES 12/31/2002 -- 0 2
124 TO SIR CLIPSBY CREW 12/31/2002 5.5 30 0
125 PURPOSES 12/31/2002 5.5 30 0
126 THE BLEEDING HAND; OR THE SPRIG OF EGLANTINE GIVEN TO A MAID 12/31/2002 5.6 33 0
127 THE BELL-MAN 12/31/2002 5.6 31 0
128 A PANEGYRIC TO SIR LEWIS PEMBERTON 12/31/2002 5.1 70 1
129 HOW PANSIES OR HEARTS-EASE CAME FIRST 12/31/2002 5.6 27 0
130 TO A GENTLEWOMAN, OBJECTING TO HIM HISGRAY HAIRS 12/31/2002 5.4 35 2
131 AN ODE TO SIR CLIPSBY CREW 12/31/2002 5.7 30 1
132 FAREWELL FROST, OR WELCOME SPRING 12/31/2002 5.1 41 1
133 TO HIS DYING BROTHER, MASTER WILLIAM HERRICK 12/31/2002 5.5 41 0
134 THE WIDOWS' TEARS; OR, DIRGE OF DORCAS 12/31/2002 5.7 30 2
135 THE MAYPOLE 12/31/2002 5.6 32 3
136 MEN MIND NO STATE IN SICKNESS 12/31/2002 5.7 27 0
137 CEREMONY UPON CANDLEMAS EVE 12/31/2002 5.5 30 1
138 THE ROCK OF RUBIES, AND THE QUARRY OFPEARLS 12/31/2002 5.6 42 0
139 HIS CONTENT IN THE COUNTRY 12/31/2002 5.5 31 0
140 Upon Julia's Clothes 12/31/2002 9.0 1 23
141 Dreams 12/31/2002 5.8 76 26
142 A Hymn To Love 12/31/2002 5.6 83 14
143 THE BUBBLE: A SONG 12/31/2002 5.6 41 0
144 TO VIOLETS 12/31/2002 -- 0 2
145 UPON A CHILD 12/31/2002 -- 0 2
146 HIS COVENANT OR PROTESTATION TO JULIA 12/31/2002 5.5 31 2
147 UPON ROSES 12/31/2002 5.7 35 1
148 UPON MAN 12/31/2002 5.5 35 5
149 FOUR THINGS MAKE US HAPPY HERE 12/31/2002 5.9 35 3
150 AN ODE OF THE BIRTH OF OUR SAVIOUR 12/31/2002 5.5 31 2
151 TO CARNATIONS: A SONG 12/31/2002 5.7 30 0
152 HIS RETURN TO LONDON 12/31/2002 5.8 26 3
153 A REQUEST TO THE GRACES 12/31/2002 5.4 70 2
154 ON A PERFUMED LADY 12/31/2002 5.5 29 1
155 HIS LOSS 12/31/2002 5.6 31 0
156 AN EPITAPH UPON A VIRGIN 12/31/2002 5.0 56 4
157 UPON JULIA'S RIBBON 12/31/2002 -- 0 3
158 ETERNITY 12/31/2002 5.6 27 3
159 TO SAPHO 12/31/2002 5.5 29 2
160 UPON A MAID 12/31/2002 -- 0 2
161 TO HEAVEN 12/31/2002 5.5 42 0
162 A BUCOLIC BETWIXT TWO;LACON AND THYRSIS 12/31/2002 5.8 70 2
163 THE PARLIAMENT OF ROSES TO JULIA 12/31/2002 5.5 34 1
164 WANT 12/31/2002 5.3 35 2
165 HER BED 12/31/2002 5.6 31 5
166 CHERRY RIPE 12/31/2002 5.7 30 4
167 THE BRIDE-CAKE 12/31/2002 5.7 30 2
168 LOVE LIGHTLY PLEASED 12/31/2002 5.8 27 3
169 A PASTORAL SUNG TO THE KING 12/31/2002 5.6 68 1
170 A PASTORAL UPON THE BIRTH OF PRINCE CHARLES:PRESENTED TO THE KING, AND SET BY MR NIC. LANIERE 12/31/2002 -- 0 2
171 HIS REQUEST TO JULIA 12/31/2002 5.9 29 5
172 THE COMING OF GOOD LUCK 12/31/2002 5.5 31 1
173 WHEN HE WOULD HAVE HIS VERSES READ 12/31/2002 5.4 33 2
174 ART ABOVE NATURE: TO JULIA 12/31/2002 5.7 32 3
175 TO BE MERRY 12/31/2002 5.5 31 1
176 HIS MISTRESS TO HIM AT HIS FAREWELL 12/31/2002 5.6 31 1
177 UPON THE DETRACTER 12/31/2002 5.2 33 1
178 UPON LOVE:BY WAY OF QUESTION AND ANSWER 12/31/2002 5.7 21 10
179 TO PHILLIS, TO LOVE AND LIVE WITH HIM 12/31/2002 5.8 29 1
180 THE OLIVE BRANCH 12/31/2002 5.6 34 2
181 THE FUNERAL RITES OF THE ROSE 12/31/2002 5.6 42 1
182 A HYMN TO THE GRACES 12/31/2002 5.5 70 3
183 HIS LITANY, TO THE HOLY SPIRIT 12/31/2002 5.6 30 0
184 GOOD PRECEPTS, OR COUNSEL 12/31/2002 5.6 26 1
185 TO BACCHUS: A CANTICLE 12/31/2002 5.6 31 0
186 TO DEATH 12/31/2002 6.0 37 2
187 SAFETY ON THE SHORE 12/31/2002 5.8 33 1
188 THE OLD WIVES' PRAYER 12/31/2002 5.4 32 1
189 TO THE GENIUS OF HIS HOUSE 12/31/2002 5.6 30 1
190 TO PANSIES 12/31/2002 5.5 30 0
191 LOVE, WHAT IT IS 12/31/2002 5.5 31 4
192 THE MAD MAID'S SONG 12/31/2002 5.8 34 1
193 THE SUCCESSION OF THE FOUR SWEET MONTHS 12/31/2002 5.6 32 2
194 UPON JULIA'S RECOVERY 12/31/2002 -- 0 2
195 PRAY AND PROSPER 12/31/2002 5.6 31 0
196 HIS SAILING FROM JULIA 12/31/2002 5.8 25 2
197 THE WATCH 12/31/2002 4.6 42 0
198 LIFE IS THE BODY'S LIGHT 12/31/2002 5.4 37 0
199 AMBITION 12/31/2002 5.3 66 2
200 ON HIMSELF 12/31/2002 5.5 32 1
201 UPON THE LOSS OF HIS MISTRESSES 12/31/2002 5.7 33 3
202 A DIALOGUE BETWIXT HIMSELF AND MISTRESS ELIZAWHEELER, UNDER THE NAME OF AMARILLIS 12/31/2002 5.5 75 4
203 THE WAKE 12/31/2002 5.7 30 1
204 A NEW YEAR'S GIFT,SENT TO SIR SIMEON STEWARD 12/31/2002 5.1 71 1
205 TO HIS LOVELY MISTRESSES 12/31/2002 5.6 42 3
206 A MEAN IN OUR MEANS 12/31/2002 5.1 90 2
207 THE BAG OF THE BEE 12/31/2002 5.7 31 0
208 TO HIS SWEET SAVIOUR 12/31/2002 5.5 41 0
209 BARLEY-BREAK; OR, LAST IN HELL 12/31/2002 5.6 32 2
210 TO SILVIA 12/31/2002 5.5 29 1
211 THE PRESENT; OR, THE BAG OF THE BEE: 12/31/2002 5.6 41 0
212 HOW SPRINGS CAME FIRST 12/31/2002 5.3 34 0
213 TO MUSIC, TO BECALM A SWEET SICK YOUTH 12/31/2002 5.6 31 0
214 UPON A PAINTED GENTLEWOMAN 12/31/2002 -- 0 1
215 UPON LOVE 12/31/2002 5.2 12 4
216 A MEDITATION FOR HIS MISTRESS 12/31/2002 5.8 66 3
217 UPON HIS SISTER-IN-LAW, MISTRESS ELIZABETHHERRICK 12/31/2002 -- 0 1
218 TO HIS MUSE 12/31/2002 5.4 35 1
219 GRACE FOR A CHILD 12/31/2002 5.2 41 0
220 THE CAPTIVE BEE; OR, THE LITTLE FILCHER 12/31/2002 -- 0 0
221 UPON HIMSELF 12/31/2002 10.0 1 0
222 A HYMN TO VENUS AND CUPID 12/31/2002 5.4 58 10
223 SOFT MUSIC 12/31/2002 5.6 34 0
224 MONEY MAKES THE MIRTH 12/31/2002 5.6 30 1
225 HIS WINDING-SHEET 12/31/2002 5.5 30 0
226 UPON TEARS 12/31/2002 5.6 34 1
227 THINGS MORTAL STILL MUTABLE 12/31/2002 5.5 30 0
228 TO MUSIC, TO BECALM HIS FEVER 12/31/2002 5.5 30 1
229 AN HYMN TO THE MUSES 12/31/2002 5.3 49 1
230 THE NIGHT PIECE: TO JULIA 12/31/2002 5.4 27 2
231 ON LOVE 12/31/2002 5.5 32 5
232 NOT EVERY DAY FIT FOR VERSE 12/31/2002 5.7 30 1
233 CEREMONIES FOR CANDLEMAS EVE 12/31/2002 5.7 30 1
234 UPON CUPID 12/31/2002 -- 0 1
235 NO MAN WITHOUT MONEY 12/31/2002 5.5 31 2
236 THE DIRGE OF JEPHTHAH'S DAUGHTER:SUNG BY THE VIRGINS 12/31/2002 5.6 31 1
237 TO ANTHEA 12/31/2002 5.7 29 3
238 A CANTICLE TO APOLLO 12/31/2002 5.1 69 1
239 TO THE ROSE: SONG 12/31/2002 5.7 31 2
240 HIS WISH TO PRIVACY 12/31/2002 5.8 27 1
241 TO HIS HONOURED AND MOST INGENIOUS FRIENDMR CHARLES COTTON 12/31/2002 5.7 32 1
242 TO LAURELS 12/31/2002 5.6 31 0
243 UPON MRS ELIZ. WHEELER, UNDER THE NAME OFAMARILLIS 12/31/2002 5.6 31 2
244 TO LIVE MERRILY,AND TO TRUST TO GOOD VERSES 12/31/2002 5.5 42 1
245 CASUALTIES 12/31/2002 5.6 31 1
246 TO ELECTRA 12/31/2002 5.6 44 2
247 NO PAINS, NO GAINS 12/31/2002 6.0 41 2
248 AN EPITAPH UPON A CHILD 12/31/2002 5.5 26 1
249 HIS DESIRE 12/31/2002 5.8 32 1
250 THE HOCK-CART, OR HARVEST HOME:TO THE RIGHT HONOURABLE MILDMAY, EARL OF WESTMORLAND 12/31/2002 5.4 36 0
251 MRS ELIZ: WHEELER, UNDER THE NAME OF THELOST SHEPHERDESS 12/31/2002 5.6 30 1
252 DELIGHT IN DISORDER 12/31/2002 6.3 40 17
253 TO ENJOY THE TIME 12/31/2002 5.5 42 1
254 TO GROVES 12/31/2002 5.7 43 0
255 FELICITY QUICK OF FLIGHT 12/31/2002 5.6 37 1
256 PARDONS 12/31/2002 5.5 31 0
257 MIRTH 12/31/2002 5.5 27 2
258 THE HAG 12/31/2002 5.8 37 2
259 THE PARCAE; OR, THREE DAINTY DESTINIES:THE ARMILET 12/31/2002 5.4 43 0
260 WlT PUNISHED PROSPERS MOST 12/31/2002 5.3 36 1
261 THE BRACELET TO JULIA 12/31/2002 5.7 30 2
262 WRITING 12/31/2002 5.5 32 3
263 TEARS AND LAUGHTER 12/31/2002 5.7 30 0
264 PEACE NOT PERMANENT 12/31/2002 5.7 37 0
265 TRUTH AND ERROR 12/31/2002 1.0 1 1
266 BURIAL 12/31/2002 5.0 41 2
267 TO SILVIA TO WED 12/31/2002 5.5 32 2
268 THE FAIRIES 12/31/2002 5.6 32 2
269 COMFORT TO A YOUTH THAT HAD LOST HIS LOVE 12/31/2002 5.7 29 5
270 TO HIS SAVIOUR, A CHILD;A PRESENT, BY A CHILD 12/31/2002 5.6 43 1
271 THE TRANSFIGURATION 12/31/2002 5.9 33 0
272 TO THE LADY CREWE, UPON THE DEATH OF HER CHILD 12/31/2002 5.6 30 0
273 TO HIS MISTRESS, OBJECTING TO HIM NEITHERTOYING OR TALKING 12/31/2002 5.6 32 2
274 AN ODE FOR BEN JONSON 12/31/2002 6.2 39 3
275 THE LILY IN A CRYSTAL 12/31/2002 5.7 32 2
276 THE WOUNDED HEART 12/31/2002 5.8 31 1
277 THE SHOWER OF BLOSSOMS 12/31/2002 5.6 30 1
278 OF LOVE: A SONNET 12/31/2002 5.5 30 4
279 TO HIS CONSCIENCE 12/31/2002 5.6 32 2
280 ORPHEUS 12/31/2002 5.6 31 2
281 THE INVITATION 12/31/2002 -- 0 2
282 TO PERlLLA 12/31/2002 5.6 32 0
283 LOSS FROM THE LEAST 12/31/2002 6.0 28 0
284 NOTHING FREE-COST 12/31/2002 5.9 24 0
285 NO FAULT IN WOMEN 12/31/2002 5.5 34 7
286 HIS LAST REQUEST TO JULIA 12/31/2002 5.7 32 3
287 CRUTCHES 12/31/2002 5.5 26 1
288 TO HIS PATERNAL COUNTRY 12/31/2002 5.5 41 0
289 A VOW TO VENUS 12/31/2002 5.3 61 3
290 TO THE WATER-NYMPHS DRINKING AT THEFOUNTAIN 12/31/2002 5.5 10 1
291 TO MEADOWS 12/31/2002 5.5 32 2
292 TO JULIA 12/31/2002 5.7 34 2
293 THE WASSAIL 12/31/2002 5.7 29 1
294 HIS AGE:DEDICATED TO HIS PECULIAR FRIEND,MR JOHN WICKES, UNDER THE NAME OFPOSTUMUS 12/31/2002 5.4 39 0
295 THE VOICE AND VIOL 12/31/2002 5.6 30 0
296 A COUNTRY LIFE:TO HIS BROTHER, MR THOMAS HERRICK 12/31/2002 9.0 1 3
297 I CALL AND I CALL 12/31/2002 5.8 30 1
298 A PARANAETICALL, OR ADVISIVE VERSETO HIS FRIEND, MR JOHN WICKS 12/31/2002 5.3 59 1
299 TO ROBIN RED-BREAST 12/31/2002 5.5 30 0
300 TO HIS VERSES 12/31/2002 5.5 32 0
[Hata Bildir]